Weather History for Waco, TX

Change the Weather History Date:

Saturday, December 22, 2012

  Actual Average Record
Temperature  
Mean Temperature 50 °F 47 °F  
Max Temperature 68 °F 58 °F 76 °F (1941)
Min Temperature 32 °F 36 °F 4 °F (1929)
Degree Days  
Heating Degree Days 15 18  
Month to date heating degree days 205 358  
Since 1 July heating degree days 531 686  
Cooling Degree Days 0 0  
Month to date cooling degree days 29 0  
Year to date cooling degree days 3241 2792  
Growing Degree Days 1 (Base 50)    
Moisture  
Dew Point 34 °F    
Average Humidity 50    
Maximum Humidity 67    
Minimum Humidity 32    
Precipitation  
Precipitation 0.00 in 0.10 in 1.52 in (1910)
Month to date precipitation 0.32 1.97  
Year to date precipitation 31.85 33.91  
Snow  
Snow 0.00 in 0.00 in T in (2004)
Month to date snowfall 0.0 0.0  
Since 1 July snowfall 0.0 0.1  
Snow Depth 0.00 in    
Sea Level Pressure  
Sea Level Pressure 30.21 in    
Wind  
Wind Speed 12 mph (South)    
Max Wind Speed 26 mph    
Max Gust Speed 33 mph    
Visibility 10 miles    
Events      
T = Trace of Precipitation, MM = Missing Value Source: NWS Daily Summary

Daily Weather History Graph

Daily Weather History Graph

Search for Another Location

Airport:

Trip Planner

Search our weather history database for the weather conditions in past years. The results will help you decide how hot, cold, wet, or windy it might be!

Date:

Astronomy

Dec. 22, 2012 Rise Set
Actual Time 7:25 AM CST 5:30 PM CST
Civil Twilight 6:58 AM CST 5:57 PM CST
Nautical Twilight 6:27 AM CST 6:27 PM CST
Astronomical Twilight 5:58 AM CST 6:57 PM CST
Moon 1:38 PM CST (12/22) 2:22 AM CST (12/22)
Length of Visible Light 10h 59m
Length of Day
10h 05m
Waxing Gibbous, 74% of the Moon is Illuminated
Dec 22
Waxing Gibbous
Dec 28
Full
Jan 4
Last Quarter
Jan 11
New
Jan 18
First Quarter

Hourly Weather History & Observations

Time (CST) Temp. Windchill Dew Point Humidity Pressure Visibility Wind Dir Wind Speed Gust Speed Precip Events Conditions
12:51 AM 41.0 °F 34.7 °F 14.0 °F 33% 30.33 in 10.0 mi SW 10.4 mph - N/A   Clear
1:51 AM 39.9 °F 33.4 °F 15.1 °F 36% 30.32 in 10.0 mi SSW 10.4 mph - N/A   Clear
2:51 AM 39.9 °F 32.9 °F 14.0 °F 35% 30.31 in 10.0 mi SSW 11.5 mph - N/A   Clear
3:51 AM 37.4 °F 33.8 °F 15.8 °F 41% 30.30 in 10.0 mi SSW 4.6 mph - N/A   Clear
4:51 AM 34.0 °F 28.0 °F 16.0 °F 48% 30.30 in 10.0 mi SSW 6.9 mph - N/A   Clear
5:51 AM 33.1 °F 25.5 °F 18.0 °F 54% 30.31 in 10.0 mi SSW 9.2 mph - N/A   Clear
6:51 AM 36.0 °F 30.3 °F 18.0 °F 48% 30.32 in 10.0 mi South 6.9 mph - N/A   Clear
7:51 AM 37.0 °F 34.5 °F 19.9 °F 50% 30.33 in 10.0 mi SSE 3.5 mph - N/A   Clear
8:51 AM 45.0 °F 41.8 °F 24.1 °F 44% 30.32 in 10.0 mi SSE 5.8 mph - N/A   Clear
9:51 AM 54.0 °F - 33.1 °F 45% 30.31 in 10.0 mi SSW 13.8 mph - N/A   Clear
10:51 AM 60.1 °F - 39.9 °F 47% 30.30 in 10.0 mi South 12.7 mph 21.9 mph N/A   Clear
11:51 AM 64.0 °F - 41.0 °F 43% 30.27 in 10.0 mi SSW 24.2 mph 33.4 mph N/A   Clear
12:51 PM 64.9 °F - 39.0 °F 39% 30.21 in 10.0 mi SSW 19.6 mph - N/A   Clear
1:51 PM 68.0 °F - 42.1 °F 39% 30.17 in 10.0 mi SSW 16.1 mph 26.5 mph N/A   Clear
2:51 PM 66.9 °F - 42.1 °F 40% 30.14 in 10.0 mi SSW 21.9 mph 28.8 mph N/A   Clear
3:51 PM 66.9 °F - 42.1 °F 40% 30.13 in 10.0 mi South 19.6 mph 27.6 mph N/A   Mostly Cloudy
4:51 PM 64.9 °F - 43.0 °F 45% 30.12 in 10.0 mi SSW 13.8 mph - N/A   Clear
5:51 PM 63.0 °F - 44.1 °F 50% 30.11 in 10.0 mi South 10.4 mph - N/A   Scattered Clouds
6:51 PM 62.1 °F - 46.0 °F 56% 30.10 in 10.0 mi South 9.2 mph - N/A   Partly Cloudy
7:51 PM 62.1 °F - 46.0 °F 56% 30.09 in 10.0 mi South 11.5 mph - N/A   Clear
8:51 PM 60.8 °F - 46.4 °F 59% 30.10 in 10.0 mi South 9.2 mph - N/A   Overcast
9:51 PM 60.1 °F - 46.9 °F 62% 30.08 in 10.0 mi South 11.5 mph - N/A   Mostly Cloudy
10:51 PM 59.0 °F - 48.0 °F 67% 30.07 in 10.0 mi South 11.5 mph - N/A   Clear
11:51 PM 59.0 °F - 48.9 °F 69% 30.05 in 10.0 mi South 9.2 mph - N/A   Clear